Location: Noyers
(47.2770°N, 1.4032°E)
Time: 02:04:53
(UTC+00:00)

SPOT 3 Rocket - Pass Details

Date: 15 May 2026
Orbit: 774 x 790 km, 98.5° (Epoch: 8 June)

Event Time Altitude Azimuth Distance (km) Brightness Sun altitude
Exits shadow 21:09:25 20° 161° (SSE) 1,742 4.8 -14.4°
Maximum altitude 21:13:03 85° 74° (ENE) 787 3.5 -14.8°
Drops below altitude 10° 21:18:13 10° 347° (NNW) 2,334 7.1 -15.4°
Sets 21:20:32 0° 347° (NNW) 3,265 8.0 -15.6°
